Temp
82 80 81 81 80 82 78 79 74 78 79 83 84 85 86 87 87 85 85 86 86 85 79 79 82 83 84 86 88 89 89 91 92 92 92 92 91 91 91 90 89 89 89 89
77 84 82 78 81 82 82 81 80 81 80 89 89 88 87 87 86 85 85 86 86 85 84 80 76 75 80 82 85 87 86 85 89 90 89 89 89 87 87 87 88 88 88 88
70 78 79 72 78 81 82 84 82 76 82 88 86 84 85 86 86 85 86 86 86 85 84 82 77 78 74 73 75 81 82 82 85 85 86 86 86 85 86 85 87 86 87 87
71 75 60 78 88 87 83 85 87 86 86 86 86 87 88 89 88 86 86 85 84 87 84 82 82 83 80 79 73 73 74 78 79 82 83 84 84 84 83 82 83 83 86 86
67 68 74 78 83 81 79 78 87 86 87 89 89 88 85 90 91 88 87 86 85 86 83 83 80 83 81 80 77 76 74 76 78 79 78 80 81 82 82 82 81 83 84 84
68 62 59 73 87 92 87 71 87 88 87 87 86 77 81 87 90 89 89 88 86 85 84 85 80 80 80 82 82 79 80 78 77 76 79 78 79 80 80 80 80 80 80 82
68 64 72 84 86 89 68 72 87 89 89 87 83 80 86 90 88 89 88 86 86 85 85 83 84 82 76 77 78 82 81 77 73 71 73 79 79 78 79 78 75 75 73 74
68 62 59 86 84 75 81 87 87 88 89 86 85 86 86 86 86 86 86 84 86 84 84 83 81 79 76 76 78 79 80 75 70 67 70 70 70 74 76 76 73 73 70 68
72 70 73 84 85 90 91 87 87 87 90 89 85 85 86 85 85 86 86 86 88 88 83 83 81 75 75 76 73 76 77 75 72 69 67 66 66 66 64 67 69 68 65 64
68 75 79 82 87 91 91 90 91 92 91 89 86 87 86 86 86 86 86 85 86 85 83 81 81 78 74 75 72 69 71 74 74 72 67 65 65 65 63 61 60 60 60 59
72 74 75 81 84 88 90 91 91 92 91 89 89 88 87 86 86 86 85 85 85 83 82 82 81 78 77 75 72 68 66 69 72 73 71 64 55 53 58 57 59 59 59 59
62 74 75 77 86 88 88 88 90 89 89 90 90 87 87 86 85 85 84 84 82 81 81 81 81 80 75 73 70 65 63 64 67 69 65 65 62 57 48 47 46 46 50 56
73 78 81 83 86 89 85 88 90 90 89 86 87 88 87 84 84 78 84 83 81 80 81 81 80 79 77 75 71 66 63 61 62 63 62 60 60 60 56 53 46 44 44 47
81 79 76 82 81 87 88 89 83 90 88 86 86 86 86 85 82 81 80 82 83 82 81 80 79 78 75 75 72 67 64 57 62 63 63 62 61 60 60 60 58 55 46 48
79 80 80 84 80 86 88 87 84 83 84 85 86 84 84 82 80 80 82 83 82 82 80 78 78 74 75 76 72 70 67 66 62 63 63 62 64 64 63 61 59 56 55 50
78 76 80 77 82 84 85 85 84 84 84 85 84 83 84 84 83 83 82 82 79 79 77 76 77 78 76 76 73 71 69 62 62 64 59 60 62 62 63 61 57 56 58 56
70 72 75 75 80 80 83 85 85 85 84 84 83 84 83 83 82 80 80 82 80 78 78 78 77 76 76 75 75 73 72 72 66 68 65 63 60 60 61 61 59 61 65 65
80 76 80 81 82 82 83 84 84 84 83 84 84 83 81 80 78 78 79 80 79 79 79 79 76 77 77 75 77 74 77 76 75 75 72 71 69 71 70 69 71 67 69 64
81 80 81 81 82 82 82 84 83 85 84 84 82 80 81 81 80 79 80 78 77 75 77 79 68 73 78 77 75 84 83 81 81 80 80 71 78 80 80 80 79 79 77 74
79 81 80 81 82 82 81 83 85 84 84 83 82 80 79 80 80 79 78 76 78 81 82 78 76 77 79 76 71 82 84 83 82 81 80 80 81 80 80 71 80 80 79 77
78 80 80 80 80 81 83 84 84 83 83 83 80 79 79 80 80 79 76 77 79 78 80 68 78 80 81 79 78 82 85 83 82 80 79 80 80 81 81 81 81 81 80 80
80 80 81 82 82 82 84 85 85 84 82 81 81 80 79 78 78 78 80 79 84 62 78 80 80 73 80 71 82 84 85 84 83 82 81 80 81 80 80 80 80 81 81 81
79 80 81 83 83 84 86 85 85 83 80 80 79 79 79 82 82 80 78 80 83 71 82 83 70 62 64 78 82 83 85 84 84 84 83 83 83 82 82 82 82 82 82 81
77 79 79 82 84 83 80 82 84 82 81 81 81 81 81 82 84 86 87 69 62 68 79 79 70 60 60 78 79 80 81 83 83 84 84 67 84 84 83 82 82 83 82 78
77 79 80 80 78 81 80 81 82 81 81 80 80 82 83 86 85 88 87 84 61 71 80 60 59 59 76 79 79 79 80 81 82 82 83 83 84 83 83 78 82 81 82 83
72 77 79 79 81 86 85 84 84 85 85 84 84 85 86 87 87 86 85 76 81 72 82 80 78 76 79 80 81 81 81 81 80 81 77 82 82 82 83 83 83 80 79 81
79 63 78 81 85 86 86 79 85 86 84 87 86 87 87 87 86 82 75 86 84 83 82 84 83 75 80 81 81 82 83 83 75 83 82 80 82 81 76 80 83 83 83 80
MSLP
998.32 999.30 999.42 999.11 998.77 999.01 999.31 999.58 999.06 998.80 999.08 999.90 1001.32 1002.37 1003.34 1004.09 1005.02 1005.66 1006.23 1006.84 1007.38 1008.00 1009.42 1009.86 1009.81 1009.83 1010.00 1009.89 1009.75 1009.74 1009.61 1009.43 1009.32 1009.95 1010.48 1010.73 1011.03 1011.55 1012.16 1012.55 1012.97 1013.30 1013.47 1013.65
998.60 998.47 999.20 998.78 998.97 999.17 999.19 999.52 999.51 999.50 999.39 999.99 1001.11 1002.42 1003.07 1003.86 1004.82 1005.50 1006.11 1006.68 1007.40 1008.03 1008.57 1009.64 1010.43 1010.64 1010.38 1010.24 1009.96 1009.67 1009.92 1010.16 1009.79 1009.78 1010.27 1010.61 1010.78 1011.14 1011.54 1012.06 1012.35 1012.72 1012.91 1013.07
998.60 999.15 998.31 998.42 998.83 998.84 998.85 999.13 999.44 999.43 999.90 1000.19 1000.95 1002.39 1003.02 1003.89 1004.73 1005.36 1006.00 1006.72 1007.38 1007.96 1008.63 1009.28 1010.17 1010.64 1010.97 1011.04 1010.87 1010.39 1010.23 1010.36 1010.14 1009.94 1010.01 1010.32 1010.60 1010.83 1011.12 1011.44 1011.66 1011.96 1012.26 1012.53
999.44 998.98 998.43 998.94 998.31 998.46 998.64 998.85 999.04 999.49 999.88 1000.66 1001.39 1002.33 1003.20 1003.86 1004.54 1005.44 1006.16 1006.93 1007.55 1007.96 1008.62 1009.27 1009.78 1009.84 1010.50 1010.94 1011.00 1010.72 1010.70 1010.64 1010.40 1010.15 1010.17 1010.20 1010.33 1010.56 1010.83 1011.26 1011.25 1011.40 1011.58 1011.97
999.39 999.34 998.50 998.49 998.29 998.93 999.10 999.26 999.39 999.40 999.65 1000.18 1001.46 1002.27 1003.48 1004.01 1004.51 1005.38 1006.28 1007.06 1007.71 1008.24 1008.78 1009.33 1009.92 1010.04 1010.31 1010.42 1010.64 1010.78 1010.68 1010.63 1010.66 1010.49 1010.51 1010.44 1010.23 1010.20 1010.48 1010.79 1011.05 1011.15 1011.33 1011.77
1000.32 999.65 998.81 999.15 997.82 998.12 999.05 999.25 999.21 999.35 999.64 1000.09 1001.62 1002.22 1002.51 1004.07 1004.91 1005.74 1006.46 1007.12 1007.78 1008.30 1008.76 1008.97 1009.80 1010.09 1010.10 1009.88 1009.98 1010.18 1010.25 1010.55 1010.66 1010.68 1010.69 1010.62 1010.60 1010.43 1010.51 1010.66 1010.76 1011.13 1011.26 1011.51
1000.26 1000.41 999.11 998.55 998.57 999.09 999.59 999.46 999.26 999.19 999.58 1000.37 1001.53 1002.39 1002.92 1004.24 1005.19 1005.95 1006.69 1007.50 1008.00 1008.32 1008.56 1009.10 1009.47 1009.73 1010.18 1010.15 1009.94 1009.99 1010.33 1010.70 1011.07 1011.17 1010.99 1010.62 1010.66 1010.67 1010.65 1010.76 1011.06 1011.32 1011.78 1012.20
1000.86 1000.38 999.77 999.29 999.19 999.53 999.56 999.43 999.67 999.88 999.95 1000.93 1002.20 1003.28 1004.08 1004.86 1005.63 1006.20 1006.85 1007.74 1007.93 1008.25 1008.63 1009.19 1009.84 1010.12 1010.18 1010.24 1010.25 1010.07 1010.23 1010.78 1011.34 1011.67 1011.21 1011.35 1011.14 1011.00 1011.03 1011.18 1011.60 1011.84 1012.32 1012.66
1000.29 1000.29 1000.74 999.50 999.54 999.46 999.68 999.76 1000.10 1000.33 1000.73 1001.38 1002.77 1003.55 1004.30 1005.01 1005.68 1006.20 1006.79 1007.39 1007.62 1007.96 1008.53 1009.10 1009.84 1010.52 1010.35 1010.50 1010.82 1010.62 1010.61 1011.11 1011.48 1011.64 1011.89 1011.92 1011.93 1011.85 1011.81 1011.98 1012.08 1012.49 1012.96 1013.41
1001.59 1000.72 1000.89 1001.07 999.99 999.35 999.60 999.85 1000.18 1000.43 1001.12 1002.09 1002.95 1003.68 1004.37 1004.96 1005.55 1006.09 1006.77 1007.36 1007.65 1008.07 1008.36 1008.92 1009.64 1010.21 1010.64 1010.86 1011.17 1011.25 1011.18 1011.23 1011.53 1011.77 1012.23 1012.30 1012.57 1012.63 1012.68 1012.72 1013.00 1013.33 1013.59 1013.82
1001.64 1001.78 1002.22 1001.44 1000.68 999.85 999.95 1000.23 1000.23 1000.62 1001.20 1002.07 1002.66 1003.38 1004.18 1004.91 1005.47 1005.99 1006.68 1007.29 1007.69 1008.08 1008.36 1008.78 1009.45 1010.05 1010.50 1010.83 1011.31 1011.49 1011.67 1011.84 1011.95 1012.18 1012.35 1013.07 1013.71 1014.13 1013.86 1013.98 1013.79 1013.84 1014.14 1014.45
1002.42 1002.18 1002.20 1001.64 1000.62 1000.58 1000.29 1000.63 1000.85 1001.23 1001.56 1002.15 1002.68 1003.36 1004.16 1004.83 1005.71 1006.13 1006.50 1007.20 1007.76 1008.17 1008.42 1008.76 1009.28 1009.69 1010.40 1010.91 1011.37 1011.77 1012.04 1012.28 1012.21 1012.52 1013.02 1013.32 1013.85 1014.68 1014.94 1014.79 1014.70 1014.54 1014.72 1014.68
1002.38 1002.50 1002.30 1001.74 1001.02 1000.53 1001.11 1001.02 1001.24 1001.55 1002.05 1002.81 1003.59 1003.86 1004.33 1005.22 1005.77 1006.32 1006.60 1007.07 1007.66 1008.14 1008.47 1008.91 1009.33 1009.51 1010.23 1010.79 1011.30 1011.80 1012.25 1012.58 1012.74 1013.01 1013.30 1013.72 1014.02 1014.45 1014.99 1015.67 1015.38 1015.56 1015.61 1015.55
1002.50 1002.35 1002.14 1001.44 1000.68 1000.52 1000.98 1001.21 1002.01 1002.00 1002.87 1003.39 1003.88 1004.42 1004.70 1005.24 1005.93 1006.55 1006.83 1007.03 1007.48 1007.82 1008.20 1008.77 1009.17 1009.48 1010.31 1010.82 1011.19 1011.75 1012.24 1012.71 1012.97 1013.22 1013.46 1013.67 1013.97 1014.30 1014.69 1014.71 1015.34 1016.13 1016.71 1016.70
1002.44 1002.48 1002.51 1001.15 1001.04 1000.84 1001.02 1002.13 1002.44 1002.83 1003.28 1003.73 1004.22 1004.67 1005.12 1005.58 1006.04 1006.45 1006.76 1007.11 1007.44 1007.71 1008.03 1009.09 1009.16 1009.79 1010.28 1010.56 1011.10 1011.59 1012.09 1012.55 1012.98 1013.20 1013.54 1013.73 1013.89 1014.34 1014.15 1014.78 1015.39 1016.25 1016.94 1017.32
1002.60 1002.87 1002.36 1002.34 1001.68 1001.20 1001.71 1002.19 1002.15 1002.64 1003.23 1003.71 1004.24 1004.74 1005.18 1005.52 1005.86 1006.24 1006.62 1007.04 1007.37 1007.58 1008.55 1009.14 1009.26 1009.52 1010.22 1010.37 1010.80 1011.31 1011.95 1012.39 1012.82 1013.18 1013.40 1013.72 1013.96 1014.27 1014.44 1014.95 1015.53 1016.03 1016.52 1016.85
1002.55 1002.74 1002.26 1002.57 1002.15 1002.16 1001.96 1002.05 1002.34 1002.75 1003.27 1003.77 1004.27 1004.76 1005.23 1005.55 1005.90 1006.30 1006.73 1007.09 1007.53 1008.06 1008.44 1008.84 1009.21 1009.71 1010.07 1010.46 1010.50 1010.88 1011.36 1012.01 1012.40 1012.70 1013.08 1013.37 1013.84 1014.18 1014.39 1014.72 1014.85 1015.19 1015.44 1015.66
1002.24 1002.60 1002.42 1001.90 1001.66 1001.71 1001.90 1002.11 1002.53 1003.03 1003.45 1003.87 1004.33 1004.87 1005.30 1005.61 1005.90 1006.36 1006.84 1007.17 1007.63 1007.87 1008.22 1008.67 1009.41 1009.74 1009.97 1010.22 1010.22 1010.40 1010.39 1010.90 1011.28 1011.46 1012.10 1012.66 1012.84 1013.01 1013.39 1013.51 1013.77 1014.22 1014.57 1015.30
1001.65 1001.90 1002.07 1002.18 1002.13 1002.26 1002.29 1002.24 1002.77 1003.11 1003.65 1003.95 1004.38 1004.82 1005.22 1005.56 1005.93 1006.46 1006.87 1007.23 1007.52 1007.83 1008.12 1008.61 1009.67 1009.90 1009.74 1009.83 1009.85 1009.16 1009.28 1009.78 1009.91 1010.27 1010.60 1011.06 1011.30 1011.18 1011.31 1011.65 1012.16 1012.45 1013.28 1014.18
1001.44 1001.45 1002.24 1002.19 1002.28 1002.33 1002.33 1002.43 1002.44 1002.95 1003.61 1003.95 1004.33 1004.78 1005.17 1005.48 1005.87 1006.43 1006.90 1007.16 1007.19 1007.20 1007.46 1008.58 1009.37 1009.55 1009.48 1009.72 1010.06 1009.29 1008.78 1009.13 1009.48 1009.86 1010.43 1010.67 1010.60 1010.81 1011.02 1011.29 1011.39 1011.84 1012.44 1013.23
1001.12 1001.19 1001.27 1001.38 1001.88 1002.23 1002.11 1002.29 1002.69 1002.85 1003.32 1003.84 1004.28 1004.71 1005.04 1005.44 1005.85 1006.39 1006.85 1006.89 1007.07 1007.68 1007.91 1008.92 1009.09 1008.95 1009.20 1009.40 1009.86 1009.35 1008.47 1008.92 1009.19 1009.50 1010.01 1010.06 1010.22 1010.34 1010.63 1010.97 1011.18 1011.43 1011.78 1012.18
1000.99 1000.74 1000.63 1000.92 1001.23 1001.49 1001.76 1002.10 1002.41 1002.72 1003.24 1003.76 1004.18 1004.55 1004.94 1005.30 1005.73 1006.19 1006.46 1006.43 1006.33 1007.76 1008.00 1008.30 1008.67 1008.72 1008.63 1009.41 1009.33 1008.65 1008.25 1008.62 1009.01 1009.26 1009.61 1009.89 1009.73 1010.05 1010.15 1010.53 1010.84 1010.96 1011.26 1011.59
1001.26 1000.84 1000.47 1000.25 1000.54 1000.80 1001.22 1001.70 1001.96 1002.56 1003.12 1003.65 1004.06 1004.38 1004.68 1004.69 1005.13 1005.32 1005.51 1006.24 1006.45 1007.44 1007.36 1007.41 1008.00 1008.87 1009.54 1009.38 1008.84 1008.37 1007.89 1008.02 1008.44 1008.68 1009.02 1009.24 1009.26 1009.46 1009.57 1009.95 1010.23 1010.41 1010.74 1011.07
1002.02 1001.48 1001.34 1001.05 1000.68 1000.83 1001.12 1001.58 1001.84 1002.52 1003.04 1003.50 1003.82 1004.15 1004.33 1004.33 1004.23 1004.67 1004.75 1005.66 1006.66 1007.17 1007.23 1007.25 1007.96 1008.74 1009.35 1009.20 1009.06 1008.61 1008.31 1008.06 1008.37 1008.45 1008.51 1008.98 1008.58 1008.65 1009.26 1009.55 1009.86 1009.94 1010.17 1010.68
1002.55 1001.95 1001.66 1001.48 1001.29 1001.11 1001.51 1001.82 1002.02 1002.48 1002.91 1003.16 1003.52 1003.85 1003.98 1003.88 1003.59 1003.49 1004.14 1005.00 1006.54 1007.02 1006.99 1007.80 1008.24 1008.64 1008.76 1008.65 1008.59 1008.62 1008.47 1008.37 1008.27 1008.47 1008.34 1008.42 1008.59 1008.72 1008.82 1009.32 1009.42 1009.68 1009.71 1009.80
1002.72 1002.41 1002.27 1002.01 1001.33 1000.75 1001.07 1001.67 1001.45 1001.56 1001.99 1002.19 1002.63 1003.08 1003.18 1003.28 1003.52 1003.94 1004.29 1004.95 1005.52 1006.54 1006.39 1006.77 1007.66 1008.24 1008.06 1008.00 1007.94 1007.94 1008.15 1008.21 1008.37 1008.54 1008.71 1008.47 1008.46 1008.53 1008.61 1008.70 1008.79 1009.01 1009.31 1009.42
1002.19 1002.51 1002.47 1001.83 1001.25 1001.16 1001.03 1001.01 1000.85 1000.61 1001.19 1001.32 1001.55 1002.11 1002.45 1002.69 1003.09 1003.67 1003.98 1004.34 1004.95 1005.45 1005.88 1005.80 1006.17 1007.08 1007.31 1007.30 1007.37 1007.20 1007.03 1007.14 1007.40 1007.57 1007.94 1008.26 1008.16 1008.12 1008.53 1008.40 1008.16 1008.27 1008.41 1008.77
Wind_Speed
15 22 14 10 7 8 12 14 16 6 4 8 11 8 9 7 10 4 5 5 5 7 6 1 3 6 6 7 8 10 10 10 12 11 12 11 11 12 12 12 12 12 11 11
17 20 19 10 9 10 12 12 13 13 11 3 11 7 5 9 9 7 6 4 3 4 4 7 4 2 1 3 5 5 9 11 11 10 10 10 10 10 11 12 11 12 12 12
16 17 14 13 11 15 13 12 12 12 9 9 9 7 8 10 9 7 5 4 2 1 1 5 6 7 2 3 5 4 5 8 12 10 10 11 10 10 12 13 13 13 12 12
14 15 18 13 9 7 10 11 11 10 9 8 5 8 8 10 11 8 6 5 4 2 4 5 7 6 6 4 3 4 5 4 7 8 11 11 11 11 11 12 13 12 13 13
14 15 13 17 9 8 12 12 12 13 10 8 8 13 10 8 8 8 7 5 5 4 4 3 2 1 2 4 6 5 5 5 6 6 7 10 12 12 11 11 12 12 12 12
9 17 19 18 8 10 2 10 14 14 12 12 11 11 12 13 10 9 8 7 6 5 3 3 4 5 6 6 5 4 2 4 3 5 8 7 9 10 10 10 11 9 10 11
14 15 11 11 11 3 9 2 7 2 10 12 13 3 17 14 10 8 8 7 5 3 3 3 3 4 4 6 7 2 2 2 3 4 6 6 9 8 6 6 4 5 4 3
16 18 17 5 3 10 5 2 4 4 9 12 13 13 12 11 10 10 8 8 5 4 3 4 4 4 5 4 4 5 3 5 5 4 2 3 5 8 9 7 6 5 4 4
5 11 9 3 11 7 7 2 3 5 8 12 11 11 11 11 10 9 8 5 4 1 4 2 2 2 5 0 4 5 3 4 3 4 4 5 4 4 4 3 3 4 5 4
6 4 7 10 12 6 6 7 8 10 12 13 11 11 11 10 8 8 7 6 5 3 2 1 2 1 0 1 1 3 6 4 2 4 5 7 5 4 3 4 4 3 2 3
14 17 8 13 9 5 7 8 6 6 11 12 12 13 11 7 6 6 6 6 5 4 3 2 1 2 3 3 0 2 1 1 3 3 6 7 8 5 4 4 1 5 5 4
9 11 7 14 8 6 7 9 8 7 7 6 4 4 6 5 7 6 7 7 6 5 4 3 3 2 3 3 4 3 2 1 0 4 4 5 6 6 14 11 13 13 7 6
14 17 15 16 17 9 8 10 9 8 9 10 5 5 5 5 6 6 7 8 8 6 5 3 3 2 2 2 6 5 4 3 2 2 4 4 4 5 5 7 17 16 13 11
2 1 11 14 11 8 10 8 4 7 6 5 5 4 3 5 7 7 7 7 7 8 6 5 4 2 4 3 6 6 5 6 1 2 3 4 4 5 4 6 5 4 11 8
5 5 7 1 8 10 11 11 11 10 8 7 6 5 5 6 6 7 7 7 7 7 4 2 6 4 4 4 6 6 6 5 3 3 2 2 4 4 5 5 6 5 5 4
7 10 8 11 9 9 12 11 9 7 7 7 6 5 6 6 6 6 6 6 7 6 5 5 4 3 4 4 5 6 5 7 4 5 5 3 1 3 5 6 7 5 5 4
8 9 7 11 12 11 11 9 6 6 6 6 6 5 6 6 6 5 5 7 5 4 7 6 4 5 5 6 7 6 5 7 7 6 6 7 5 5 5 6 6 7 8 9
13 12 12 7 6 8 10 10 6 6 6 7 6 7 7 6 6 6 6 6 7 6 5 5 4 6 6 8 7 5 5 7 8 8 8 8 9 9 10 10 10 10 10 8
15 17 11 10 4 3 3 7 9 9 7 7 8 8 7 7 7 7 7 7 7 6 6 8 9 5 7 4 5 7 7 8 7 6 6 7 7 6 7 8 10 9 10 10
13 12 12 9 8 7 5 6 8 8 8 9 8 8 8 8 8 8 7 7 6 4 7 10 9 9 8 7 7 9 6 7 7 7 6 8 7 6 6 4 6 7 10 10
7 12 14 12 11 11 7 5 8 8 8 9 9 9 9 9 8 7 6 7 9 6 3 15 9 8 8 7 7 10 6 6 6 6 8 7 7 7 7 7 7 7 8 9
3 8 14 17 16 15 12 11 11 7 8 9 9 9 10 10 9 8 7 6 5 13 8 8 9 6 5 11 9 10 8 9 8 8 7 8 7 7 8 8 7 7 7 7
8 3 5 11 13 12 11 11 9 9 10 9 9 10 11 10 9 9 9 10 5 9 7 8 11 15 11 7 8 10 9 7 7 8 8 8 7 8 7 8 8 9 9 10
8 7 4 2 4 8 9 8 10 9 8 8 9 10 10 9 9 8 5 8 8 14 9 5 14 15 10 8 9 9 9 6 7 8 8 8 9 8 6 6 7 8 7 7
7 8 7 3 4 5 8 9 9 8 8 7 8 9 11 10 8 4 6 9 14 10 9 12 14 14 9 9 9 10 8 9 7 8 8 9 9 8 6 6 9 9 10 9
6 5 7 6 8 3 10 9 8 8 8 7 8 8 9 8 7 5 5 5 12 10 10 11 11 10 9 11 11 11 10 10 9 9 9 10 9 9 10 11 11 8 7 8
1 3 6 7 4 3 4 2 9 8 9 6 8 9 9 7 6 6 5 8 8 10 9 10 12 12 11 11 12 12 11 12 13 12 13 11 11 9 7 11 11 11 10 9
Wind_Direction
287 177 273 236 273 281 218 262 279 339 248 104 119 153 177 189 160 178 161 174 149 147 149 216 229 220 218 229 227 231 253 266 207 212 216 224 207 201 207 209 208 219 219 220
230 253 196 252 269 258 269 248 257 270 281 59 120 138 183 172 166 178 166 157 168 167 158 155 181 345 1 282 244 243 217 241 259 205 216 219 223 217 204 211 214 209 221 219
254 242 261 222 245 259 244 236 240 257 238 266 132 171 181 163 172 164 152 135 155 122 175 127 168 169 158 1 334 321 256 257 233 234 216 217 217 218 215 214 210 212 214 218
246 240 242 246 270 307 247 239 236 232 259 157 202 169 174 168 159 152 150 143 138 141 128 142 178 187 150 201 284 283 309 305 269 242 228 217 215 221 223 225 222 216 214 216
239 255 252 240 190 212 241 252 266 271 258 183 212 148 165 172 150 142 139 125 103 85 82 122 201 285 224 232 181 198 245 262 273 266 262 246 230 228 224 225 228 229 223 224
222 253 246 268 253 193 178 266 258 237 247 163 177 194 170 165 145 140 144 138 143 117 139 173 158 253 260 254 219 278 242 240 271 290 265 271 266 251 239 231 236 232 232 227
227 235 259 251 113 147 230 29 345 217 221 156 191 186 125 143 140 139 131 140 129 133 71 42 335 342 296 297 285 294 287 185 324 319 301 281 287 288 266 247 229 175 151 117
234 245 238 1 110 221 53 33 39 239 169 168 116 129 135 139 145 142 142 138 173 141 89 83 38 336 295 280 286 251 248 70 67 359 330 300 294 284 280 270 222 175 153 133
254 217 348 192 242 189 264 277 150 156 154 145 147 149 150 150 156 155 157 156 145 112 129 119 89 336 315 50 334 306 208 97 78 73 61 46 43 37 37 9 210 173 171 166
258 313 258 237 274 233 184 250 192 164 152 143 176 164 165 162 171 163 170 175 187 173 149 35 107 115 337 339 326 321 264 152 108 85 82 63 51 45 77 77 66 66 76 119
231 215 311 274 278 241 202 241 189 168 152 174 185 172 177 171 182 182 188 192 188 198 197 161 138 112 223 127 90 126 76 239 158 126 105 95 65 26 27 27 48 126 112 94
243 269 240 289 293 228 225 202 208 172 162 170 190 174 173 192 191 221 199 192 193 206 225 200 206 167 148 134 126 136 134 297 124 133 112 107 108 95 48 54 44 53 70 117
234 226 260 262 277 201 239 206 194 192 165 170 181 227 212 213 214 205 224 197 198 215 220 228 267 154 132 152 145 152 137 131 109 148 142 151 141 128 119 73 66 45 42 58
225 273 248 249 256 183 210 182 140 135 129 140 152 211 205 219 137 210 215 209 205 217 207 210 247 128 135 187 132 140 141 137 122 149 140 147 140 137 136 118 106 84 34 64
231 269 284 42 323 197 160 159 163 156 160 156 168 178 184 199 180 204 194 210 210 226 188 176 255 145 146 165 155 161 157 160 152 148 110 87 133 145 122 111 100 107 124 95
212 262 193 287 234 171 168 178 171 161 164 169 197 200 207 212 204 199 204 208 211 206 160 210 222 146 160 197 172 151 168 132 151 157 142 113 127 149 127 138 132 141 154 149
231 214 217 186 237 212 206 173 176 158 164 181 203 199 208 210 199 194 194 185 194 168 198 180 214 125 181 190 185 156 166 152 168 155 161 149 154 163 163 158 157 166 167 171
220 229 251 255 210 196 205 201 165 188 193 185 185 195 204 206 219 184 193 180 183 186 178 155 166 171 202 182 188 194 187 165 181 171 160 173 176 178 174 172 170 183 169 170
241 208 229 246 237 194 232 204 203 207 203 192 189 197 203 205 188 177 185 184 192 203 195 153 122 204 182 163 280 202 179 185 176 162 173 139 183 186 175 166 177 172 153 169
225 211 211 232 212 233 214 211 219 176 201 201 192 196 196 200 175 175 183 207 226 235 162 141 173 207 194 161 237 260 181 187 170 166 150 193 184 176 171 183 175 171 158 176
216 216 222 230 226 228 240 216 215 219 200 202 195 198 194 191 178 180 191 235 185 161 224 137 199 201 195 164 213 243 192 207 187 180 160 224 158 193 179 182 189 178 182 179
301 237 216 214 212 215 218 222 217 218 195 197 203 194 194 190 189 199 234 276 165 150 188 190 200 193 169 154 215 236 211 189 198 194 189 213 197 213 189 187 200 205 195 194
22 355 250 210 213 216 212 209 206 188 187 196 200 202 198 198 195 209 208 188 239 174 210 211 141 117 144 222 224 243 246 202 206 210 196 207 201 200 206 198 206 204 201 200
15 30 35 314 221 200 199 189 181 170 185 192 204 205 201 215 202 207 230 116 121 146 224 163 144 148 177 222 233 246 262 227 215 226 215 232 228 203 195 228 213 221 213 209
9 355 51 44 180 162 163 176 165 165 178 212 183 199 209 224 256 234 177 160 142 187 209 136 153 162 196 219 220 227 236 248 228 231 239 227 225 249 253 197 222 224 243 221
354 355 334 338 323 189 178 169 214 181 187 196 183 199 204 216 213 239 170 247 161 196 228 175 181 195 220 217 223 216 221 228 233 235 255 263 254 254 247 246 247 234 218 239
92 25 331 284 229 227 288 214 214 215 178 220 188 186 206 204 187 201 202 185 211 185 213 235 189 190 216 223 222 240 229 219 214 218 209 223 244 236 237 255 240 240 233 225